ROCKY LBPD-LBSF

Flight info

Callsign ROCKY
Flight time 0h 37m
Altitude 16000
Route RUMEN
Aircraft F16/M-SDFIRWY/H

Departure

Time 2026-05-06 18:20
Airport Plovdiv International Airport (LBPD)

Arrival

Time 2026-05-06 18:57
Airport Sofia Airport (LBSF)
Time Latitude Longitude Altitude Speed Heading
2026-05-06 18:06 42.07608 24.84354 604 ft 0 kts 38°
2026-05-06 18:11 42.07608 24.84353 604 ft 0 kts 38°
2026-05-06 18:11 42.07633 24.84339 605 ft 17 kts 299°
2026-05-06 18:11 42.07606 24.84232 604 ft 5 kts 249°
2026-05-06 18:12 42.07605 24.84228 604 ft 0 kts 254°
2026-05-06 18:14 42.07605 24.84226 603 ft 1 kts 257°
2026-05-06 18:14 42.07630 24.84147 601 ft 17 kts 304°
2026-05-06 18:14 42.07649 24.84012 598 ft 15 kts 199°
2026-05-06 18:15 42.07584 24.84055 601 ft 7 kts 134°
2026-05-06 18:15 42.07567 24.84082 601 ft 2 kts 129°
2026-05-06 18:15 42.07510 24.84182 604 ft 9 kts 126°
2026-05-06 18:15 42.07489 24.84243 604 ft 5 kts 76°
2026-05-06 18:16 42.07537 24.84286 604 ft 10 kts 352°
2026-05-06 18:16 42.07552 24.84277 604 ft 0 kts 320°
2026-05-06 18:16 42.07610 24.84168 602 ft 17 kts 309°
2026-05-06 18:16 42.07661 24.84085 599 ft 10 kts 291°
2026-05-06 18:17 42.07619 24.83997 599 ft 12 kts 207°
2026-05-06 18:17 42.07538 24.83945 600 ft 7 kts 204°
2026-05-06 18:17 42.07502 24.83924 601 ft 3 kts 201°
2026-05-06 18:17 42.07429 24.83935 602 ft 11 kts 142°
2026-05-06 18:18 42.07420 24.83948 602 ft 0 kts 128°
2026-05-06 18:19 42.07341 24.84100 605 ft 80 kts 124°
2026-05-06 18:19 42.06636 24.85345 656 ft 219 kts 126°
2026-05-06 18:20 42.05426 24.87164 1212 ft 299 kts 135°
2026-05-06 18:20 42.03760 24.89186 2301 ft 358 kts 138°
2026-05-06 18:20 42.01790 24.91700 3256 ft 420 kts 135°
2026-05-06 18:20 41.99574 24.94581 4225 ft 477 kts 136°
2026-05-06 18:21 41.96800 24.97817 5804 ft 606 kts 141°
2026-05-06 18:21 41.93601 25.01031 8171 ft 528 kts 143°
2026-05-06 18:21 41.91061 25.03845 9014 ft 425 kts 131°
2026-05-06 18:21 41.89505 25.06741 10468 ft 379 kts 120°
2026-05-06 18:22 41.88968 25.07971 10562 ft 368 kts 118°
2026-05-06 18:22 41.88812 25.08336 10559 ft 365 kts 118°
2026-05-06 18:23 41.88637 25.08747 10532 ft 362 kts 118°
2026-05-06 18:23 41.88211 25.09751 10459 ft 352 kts 118°
2026-05-06 18:23 41.87085 25.12513 10043 ft 346 kts 114°
2026-05-06 18:24 41.86789 25.15482 10038 ft 298 kts 74°
2026-05-06 18:24 41.87628 25.17869 10407 ft 293 kts 46°
2026-05-06 18:24 41.89289 25.19569 10421 ft 314 kts 31°
2026-05-06 18:24 41.91392 25.20476 10491 ft 329 kts 345°
2026-05-06 18:25 41.91509 25.17973 11880 ft 394 kts 219°
2026-05-06 18:25 41.89225 25.17573 8746 ft 557 kts 110°
2026-05-06 18:25 41.88042 25.23163 6822 ft 661 kts 102°
2026-05-06 18:25 41.87306 25.29104 9423 ft 648 kts 87°
2026-05-06 18:26 41.88678 25.34078 10872 ft 536 kts 60°
2026-05-06 18:26 41.90331 25.38148 11644 ft 457 kts 56°
2026-05-06 18:26 41.92415 25.40522 12682 ft 363 kts 353°
2026-05-06 18:26 41.94777 25.39972 12526 ft 340 kts 347°
2026-05-06 18:27 41.97525 25.39443 12108 ft 438 kts 357°
2026-05-06 18:27 42.00631 25.39484 11591 ft 441 kts
2026-05-06 18:27 42.03524 25.39931 10819 ft 385 kts
2026-05-06 18:27 42.05891 25.40480 10926 ft 304 kts 11°
2026-05-06 18:28 42.07778 25.41313 10665 ft 265 kts 32°
2026-05-06 18:28 42.09058 25.42881 10591 ft 223 kts 49°
2026-05-06 18:28 42.09701 25.44653 10371 ft 225 kts 74°
2026-05-06 18:28 42.09877 25.46776 10607 ft 228 kts 90°
2026-05-06 18:29 42.09524 25.48799 10784 ft 228 kts 117°
2026-05-06 18:29 42.08490 25.50623 10571 ft 265 kts 133°
2026-05-06 18:29 42.06602 25.52341 10522 ft 399 kts 156°
2026-05-06 18:29 42.03721 25.52792 10509 ft 418 kts 192°
2026-05-06 18:30 42.01550 25.50980 10420 ft 347 kts 236°
2026-05-06 18:30 42.00559 25.48348 10412 ft 290 kts 258°
2026-05-06 18:30 42.00404 25.45902 10413 ft 243 kts 282°
2026-05-06 18:30 42.00795 25.43851 10290 ft 216 kts 292°
2026-05-06 18:31 42.01373 25.41881 10820 ft 261 kts 295°
2026-05-06 18:31 42.02161 25.39008 10877 ft 359 kts 289°
2026-05-06 18:31 42.02859 25.35960 10764 ft 323 kts 290°
2026-05-06 18:31 42.03612 25.33284 10720 ft 299 kts 295°
2026-05-06 18:32 42.04450 25.30485 10708 ft 316 kts 291°
2026-05-06 18:32 42.05137 25.27904 10700 ft 248 kts 288°
2026-05-06 18:32 42.05555 25.25993 10850 ft 190 kts 286°
2026-05-06 18:32 42.05893 25.24480 10617 ft 148 kts 291°
2026-05-06 18:33 42.06285 25.22889 10949 ft 234 kts 291°
2026-05-06 18:33 42.06884 25.21259 12711 ft 138 kts 294°
2026-05-06 18:33 42.07030 25.20176 12223 ft 144 kts 290°
2026-05-06 18:33 42.07456 25.18747 11346 ft 202 kts 292°
2026-05-06 18:34 42.08017 25.16532 11773 ft 317 kts 290°
2026-05-06 18:34 42.09021 25.13083 11906 ft 476 kts 293°
2026-05-06 18:34 42.10347 25.08615 11655 ft 512 kts 292°
2026-05-06 18:34 42.11425 25.04398 11154 ft 434 kts 289°
2026-05-06 18:35 42.12342 25.00962 10637 ft 362 kts 293°
2026-05-06 18:35 42.13114 24.98022 10584 ft 310 kts 291°
2026-05-06 18:35 42.13798 24.95492 10614 ft 273 kts 288°
2026-05-06 18:35 42.14252 24.93232 10565 ft 235 kts 298°
2026-05-06 18:36 42.14879 24.91143 10779 ft 231 kts 290°
2026-05-06 18:36 42.15447 24.89011 10612 ft 306 kts 294°
2026-05-06 18:36 42.16376 24.85655 10776 ft 417 kts 291°
2026-05-06 18:36 42.17360 24.83222 10638 ft 209 kts 309°
2026-05-06 18:37 42.17594 24.81573 10580 ft 200 kts 282°
2026-05-06 18:37 42.17862 24.80212 10936 ft 224 kts 290°
2026-05-06 18:37 42.18029 24.78154 11508 ft 127 kts 266°
2026-05-06 18:37 42.18046 24.77122 10632 ft 186 kts 275°
2026-05-06 18:38 42.18430 24.74721 10808 ft 347 kts 286°
2026-05-06 18:38 42.19833 24.71417 11262 ft 363 kts 304°
2026-05-06 18:38 42.20856 24.68519 11241 ft 331 kts 291°
2026-05-06 18:38 42.21817 24.65891 12525 ft 306 kts 303°
2026-05-06 18:39 42.22778 24.63252 12565 ft 332 kts 295°
2026-05-06 18:39 42.23695 24.60242 12148 ft 365 kts 295°
2026-05-06 18:39 42.24857 24.57048 11891 ft 391 kts 298°
2026-05-06 18:40 42.26005 24.53255 13887 ft 328 kts 293°
2026-05-06 18:40 42.26751 24.50423 14541 ft 324 kts 283°
2026-05-06 18:40 42.26568 24.47447 13878 ft 333 kts 209°
2026-05-06 18:40 42.24697 24.47841 13817 ft 280 kts 168°
2026-05-06 18:41 42.24625 24.49104 11285 ft 232 kts 315°
2026-05-06 18:41 42.25366 24.46980 10173 ft 346 kts 294°
2026-05-06 18:41 42.26658 24.43392 10562 ft 511 kts 297°
2026-05-06 18:41 42.28221 24.39052 11703 ft 482 kts 297°
2026-05-06 18:42 42.29522 24.35236 12100 ft 417 kts 293°
2026-05-06 18:42 42.30544 24.31803 12307 ft 369 kts 292°
2026-05-06 18:42 42.31470 24.28674 11568 ft 351 kts 292°
2026-05-06 18:42 42.32053 24.26609 11055 ft 342 kts 291°
2026-05-06 18:43 42.32084 24.26500 11035 ft 341 kts 291°
2026-05-06 18:43 42.33029 24.23717 10580 ft 339 kts 298°
2026-05-06 18:43 42.34282 24.20929 9922 ft 348 kts 304°
2026-05-06 18:44 42.35680 24.18356 9310 ft 332 kts 309°
2026-05-06 18:44 42.37173 24.16075 8527 ft 323 kts 313°
2026-05-06 18:44 42.38674 24.13913 7926 ft 307 kts 313°
2026-05-06 18:44 42.39698 24.12670 9969 ft 118 kts 343°
2026-05-06 18:45 42.40437 24.12413 9068 ft 194 kts 344°
2026-05-06 18:45 42.41882 24.11750 7523 ft 240 kts 336°
2026-05-06 18:45 42.43484 24.10832 6631 ft 264 kts 335°
2026-05-06 18:45 42.45064 24.09548 6080 ft 264 kts 318°
2026-05-06 18:46 42.46305 24.07875 6696 ft 245 kts 313°
2026-05-06 18:46 42.47533 24.06187 7137 ft 263 kts 314°
2026-05-06 18:46 42.48724 24.04430 7463 ft 246 kts 310°
2026-05-06 18:46 42.49797 24.02812 7811 ft 207 kts 309°
2026-05-06 18:47 42.50717 24.01358 7830 ft 214 kts 308°
2026-05-06 18:47 42.51639 23.99784 7862 ft 202 kts 307°
2026-05-06 18:47 42.52436 23.98321 7826 ft 185 kts 304°
2026-05-06 18:47 42.53146 23.96908 7742 ft 186 kts 302°
2026-05-06 18:48 42.54008 23.95029 8038 ft 262 kts 301°
2026-05-06 18:48 42.54945 23.92933 7867 ft 256 kts 303°
2026-05-06 18:48 42.56153 23.91567 8493 ft 208 kts 341°
2026-05-06 18:48 42.57737 23.91326 7980 ft 263 kts
2026-05-06 18:49 42.59566 23.91573 7913 ft 262 kts
2026-05-06 18:49 42.61346 23.91852 7883 ft 249 kts
2026-05-06 18:49 42.63031 23.92119 7882 ft 235 kts
2026-05-06 18:49 42.64598 23.92369 7890 ft 226 kts
2026-05-06 18:50 42.66178 23.92621 7921 ft 232 kts
2026-05-06 18:50 42.67799 23.92882 7923 ft 239 kts
2026-05-06 18:50 42.69492 23.92948 7929 ft 244 kts 353°
2026-05-06 18:50 42.71022 23.92059 7958 ft 242 kts 314°
2026-05-06 18:51 42.71803 23.90101 7951 ft 245 kts 278°
2026-05-06 18:51 42.71697 23.87726 7633 ft 262 kts 258°
2026-05-06 18:51 42.71271 23.85289 7280 ft 266 kts 256°
2026-05-06 18:51 42.70804 23.82792 6692 ft 275 kts 255°
2026-05-06 18:52 42.70337 23.80313 6343 ft 271 kts 256°
2026-05-06 18:52 42.69897 23.77848 5736 ft 266 kts 256°
2026-05-06 18:52 42.69487 23.75520 5557 ft 242 kts 256°
2026-05-06 18:52 42.69087 23.73208 5077 ft 275 kts 257°
2026-05-06 18:53 42.68720 23.70463 4811 ft 296 kts 262°
2026-05-06 18:53 42.68545 23.67809 4672 ft 270 kts 267°
2026-05-06 18:53 42.68557 23.65272 4560 ft 266 kts 271°
2026-05-06 18:53 42.68649 23.62758 4488 ft 262 kts 272°
2026-05-06 18:54 42.68734 23.60494 4304 ft 229 kts 272°
2026-05-06 18:54 42.68758 23.58469 3940 ft 205 kts 272°
2026-05-06 18:54 42.68882 23.56530 3606 ft 210 kts 274°
2026-05-06 18:54 42.68986 23.54586 3299 ft 200 kts 274°
2026-05-06 18:55 42.69088 23.52762 3053 ft 189 kts 272°
2026-05-06 18:55 42.69149 23.51049 2769 ft 175 kts 273°
2026-05-06 18:55 42.69206 23.49455 2548 ft 169 kts 273°
2026-05-06 18:55 42.69315 23.47740 2373 ft 188 kts 272°
2026-05-06 18:56 42.69411 23.45931 2136 ft 181 kts 272°
2026-05-06 18:56 42.69490 23.44353 1820 ft 160 kts 272°
2026-05-06 18:56 42.69569 23.42946 1750 ft 128 kts 274°
2026-05-06 18:56 42.69619 23.42085 1755 ft 56 kts 275°
2026-05-06 18:57 42.69627 23.41794 1755 ft 25 kts 266°
2026-05-06 18:57 42.69607 23.41669 1755 ft 6 kts 245°
2026-05-06 18:57 42.69596 23.41631 1756 ft 5 kts 252°
2026-05-06 18:57 42.69561 23.41510 1757 ft 5 kts 240°
2026-05-06 18:58 42.69541 23.41460 1757 ft 16 kts 245°
2026-05-06 18:58 42.69482 23.41264 1760 ft 18 kts 267°
2026-05-06 18:58 42.69528 23.41213 1760 ft 8 kts
2026-05-06 18:58 42.69763 23.41236 1757 ft 24 kts 359°
2026-05-06 18:59 42.69880 23.41160 1757 ft 9 kts 315°
2026-05-06 18:59 42.69895 23.41081 1757 ft 18 kts 287°
2026-05-06 18:59 42.69930 23.40921 1757 ft 16 kts 287°
2026-05-06 18:59 42.69944 23.40856 1757 ft 0 kts 276°
2026-05-06 19:00 42.69915 23.40858 1757 ft 3 kts 122°
2026-05-06 19:00 42.69914 23.40872 1757 ft 0 kts 72°